Location: Bjelajci
(45.0103°N, 16.1758°E)
Time: 19:50:22
(UTC+00:00)

SL-27 R/B - Pass Details

Date: 14 July 2020
Orbit: 420 x 470 km, 74.7° (Epoch: 05 August)

Event Time Altitude Azimuth Distance (km) Brightness Sun altitude
Exits shadow 02:20:45 - 186° (S) 1,813 5.0 -9.4°
Reaches altitude 10° 02:21:18 10° 185° (S) 1,590 4.7 -9.3°
Maximum altitude 02:24:43 55° 106° (ESE) 546 3.0 -8.9°
Drops below altitude 10° 02:28:07 10° 28° (NNE) 1,576 6.5 -8.4°
Sets 02:30:13 0° 24° (NNE) 2,443 7.5 -8.2°
